Content
SEND FEEDBACK

Daily
Averages
Monthly
Summary
United States of America

HASTINGS, NEBRASKA


Home > North America > United States > Nebraska
Elevation: 1944 feet     Latitude: 40 36N     Longitude: 098 25W

WEATHER
 
SELECT A DAY
Number of Records: 197,664;   Date Range: 1/1/95 - 11/19/14
 
SHARE

PRINT THIS DATA

[ ← Previous Day ]
WEATHER ALMANAC - JULY 30, 2014
[ Next Day → ]
[ °C ]   °F
Weather ElementAverageHighLow
Temperature70.7 °F79 °F (7:53 pm)59 °F (9:08 am)
Dewpoint53.1 °F55.9 °F (1:53 am)51.1 °F (11:53 pm)
Humidity55.1 %83 % (10:49 pm)38 % (3:53 pm)
Barometer30.13 in30.20 in (4:53 am)30.10 in (12:57 am)
Wind Speed4.8 mph6.9 mph (7:53 am)
Weather ElementAverage
Visibility10 mi
Wind DirectionENE (73.9 °)

Weather ElementTotal
Precipitation---
Cooling Degree Days4 (Base 65)
Growing Degree Days19 (Base 50)
Averaged from 23 records on July 30, 2014
WEATHER CONDITIONS BREAKOUT
WIND DIRECTION BREAKOUT
WEATHER BY HOUR - JULY 30, 2014
[ °C ]   °F
Local TimeTemperatureDewpointHumidityBarometerVisibilityWind DirectionWind SpeedGust SpeedPrecipitationEventsConditions
12:53 AM68.0 °F54.0 °F61 %30.12 in10.0 miESE (110°)5.8 mphPartly Cloudy
1:53 AM66.9 °F54.0 °F63 %30.12 in10.0 miESE (110°)5.8 mphMostly Cloudy
2:53 AM66.9 °F53.1 °F61 %30.11 in10.0 miSE (130°)6.9 mphMostly Cloudy
3:53 AM64.9 °F53.1 °F65 %30.11 in10.0 miESE (120°)6.9 mphClear
4:53 AM64.0 °F53.1 °F67 %30.12 in10.0 miESE (120°)4.6 mphClear
5:53 AM59.0 °F54.0 °F83 %30.12 in10.0 miNE (50°)5.8 mphClear
6:53 AM60.1 °F54.0 °F80 %30.13 in10.0 miCalmClear
7:53 AM64.0 °F55.9 °F75 %30.14 in10.0 miNNE (20°)3.5 mphClear
8:53 AM69.1 °F55.0 °F61 %30.14 in10.0 miVariable3.5 mphClear
9:53 AM72.0 °F52.0 °F49 %30.14 in10.0 miESE (110°)4.6 mphClear
10:53 AM73.9 °F52.0 °F46 %30.16 in10.0 miENE (70°)5.8 mphClear
11:53 AM75.2 °F51.8 °F44 %30.20 in10.0 miEast (100°)5.8 mphMostly Cloudy
12:53 PM75.0 °F52.0 °F44 %30.15 in10.0 miVariable4.6 mphMostly Cloudy
1:53 PM75.9 °F54.0 °F46 %30.14 in10.0 miNorthScattered Clouds
2:53 PM75.9 °F52.0 °F43 %30.13 in10.0 miNE (50°)6.9 mphScattered Clouds
3:53 PM79.0 °F52.0 °F39 %30.12 in10.0 miEast (90°)4.6 mphScattered Clouds
4:53 PM79.0 °F51.1 °F38 %30.11 in10.0 miNE (40°)4.6 mphClear
5:53 PM78.1 °F52.0 °F40 %30.11 in10.0 miNE (40°)6.9 mphPartly Cloudy
6:53 PM77.0 °F51.8 °F41 %30.14 in10.0 miEast (80°)4.6 mphClear
7:53 PM73.9 °F54.0 °F50 %30.11 in9.0 miENE (70°)3.5 mphClear
8:53 PM72.0 °F54.0 °F53 %30.10 in10.0 miESE (110°)3.5 mphClear
9:53 PM68.0 °F53.1 °F59 %30.11 in10.0 miESE (120°)3.5 mphClear
11:53 PM68.0 °F53.1 °F59 %30.12 in10.0 miSSE (160°)4.6 mphClear
Hourly data recorded from KHSI, located miles away from Hastings, Nebraska







STORIES FROM OUR PARTNERS